User: anonymous   Login
Location: Gloden
(48.4833°N, 15.3167°E)
Time: 04:49:45
(UTC+00:00)
Language:

Oscar 11 - Orbit

View from above orbital plane
View from above orbital plane
View from above satellite
View from above satellite

Ground track
Ground track

The orbit data is extracted from the following two-line orbital elements,

1 14781U 84021B   21125.42254091  .00000106  00000-0  19043-4 0  9992
2 14781  97.5930 127.3836 0007448 214.3603 145.7131 14.83279296979556
Epoch (UTC): 05 May 2021 10:08:27
Eccentricity: 0.0007448
inclination: 97.5930°
perigee height: 614 km
apogee height: 624 km
right ascension of ascending node: 127.3836°
argument of perigee: 214.3603°
revolutions per day: 14.83279296
mean anomaly at epoch: 145.7131°
orbit number at epoch: 97955

The dashed part of the orbit path shows where the satellite is in the earth's shadow,  

DLR